When you browse on this site, cookies collect data to enhance your experience and personalize the content and advertising you see.
Visit our Privacy Policy to learn more. By continuing to use the site, you agree to this use of cookies and data.
  • In Latvia
  • List of Countries
  • For 7 days
  • Water Temperature
  • Weather Map
  • Weather Widgets
  • user-avatar
    Login

    Hourly Weather Salta

    Today, 22 August, Thursday

    Time Temperature Precipitation Wind Pressure Humidity
    00:00 +10°C° 0 mm 1 mps 652 mmHg 50%
    01:00 +9°C° 0 mm 1 mps 652 mmHg 50%
    02:00 +9°C° 0 mm 1 mps 651 mmHg 50%
    03:00 +9°C° 0 mm 1 mps 651 mmHg 50%
    04:00 +9°C° 0 mm 1 mps 651 mmHg 51%
    05:00 +8°C° 0 mm 1 mps 652 mmHg 52%
    06:00 +10°C° 0 mm 1 mps 653 mmHg 48%
    07:00 +11°C° 0 mm 1 mps 654 mmHg 45%
    08:00 +13°C° 0 mm 1 mps 655 mmHg 41%
    09:00 +15°C° 0 mm 1 mps 656 mmHg 37%
    10:00 +17°C° 0 mm 2 mps 657 mmHg 34%
    11:00 +20°C° 0 mm 2 mps 658 mmHg 30%
    12:00 +20°C° 0 mm 3 mps 658 mmHg 29%
    13:00 +21°C° 0 mm 3 mps 658 mmHg 28%
    14:00 +22°C° 0 mm 3 mps 657 mmHg 27%
    15:00 +21°C° 0 mm 3 mps 657 mmHg 28%
    16:00 +21°C° 0 mm 3 mps 657 mmHg 30%
    17:00 +20°C° 0 mm 3 mps 657 mmHg 31%
    18:00 +18°C° 0 mm 2 mps 657 mmHg 37%
    19:00 +16°C° 0 mm 2 mps 658 mmHg 44%
    20:00 +13°C° 0 mm 1 mps 658 mmHg 50%
    21:00 +12°C° 0 mm 1 mps 657 mmHg 53%
    22:00 +12°C° 0 mm 1 mps 657 mmHg 56%
    23:00 +11°C° 0 mm 1 mps 657 mmHg 58%

    Tomorrow, 23 August, Friday

    Time Temperature Precipitation Wind Pressure Humidity
    00:00 +10°C° 0 mm 1 mps 657 mmHg 60%
    01:00 +9°C° 0 mm 0 mps 656 mmHg 61%
    02:00 +9°C° 0 mm 0 mps 656 mmHg 63%
    03:00 +8°C° 0 mm 0 mps 655 mmHg 63%
    04:00 +9°C° 0 mm 1 mps 655 mmHg 64%
    05:00 +9°C° 0 mm 1 mps 654 mmHg 64%
    06:00 +9°C° 0 mm 0 mps 655 mmHg 58%
    07:00 +11°C° 0 mm 0 mps 655 mmHg 53%
    08:00 +12°C° 0 mm 0 mps 656 mmHg 48%
    09:00 +16°C° 0 mm 1 mps 656 mmHg 42%
    10:00 +19°C° 0 mm 1 mps 657 mmHg 37%
    11:00 +20°C° 0 mm 2 mps 657 mmHg 31%
    12:00 +21°C° 0 mm 2 mps 656 mmHg 30%
    13:00 +22°C° 0 mm 3 mps 656 mmHg 29%
    14:00 +24°C° 0 mm 3 mps 655 mmHg 27%
    15:00 +22°C° 0 mm 3 mps 654 mmHg 29%
    16:00 +22°C° 0 mm 3 mps 654 mmHg 30%
    17:00 +21°C° 0 mm 2 mps 653 mmHg 32%
    18:00 +19°C° 0 mm 2 mps 653 mmHg 39%
    19:00 +16°C° 0 mm 1 mps 652 mmHg 46%
    20:00 +13°C° 0 mm 0 mps 652 mmHg 52%
    21:00 +12°C° 0 mm 0 mps 651 mmHg 54%
    22:00 +12°C° 0 mm 0 mps 651 mmHg 57%
    23:00 +11°C° 0 mm 0 mps 651 mmHg 59%

    Day after tomorrow, 24 August, Saturday

    Time Temperature Precipitation Wind Pressure Humidity
    00:00 +11°C° 0 mm 0 mps 651 mmHg 60%
    01:00 +10°C° 0 mm 0 mps 650 mmHg 61%
    02:00 +10°C° 0 mm 0 mps 650 mmHg 62%
    03:00 +11°C° 0 mm 1 mps 649 mmHg 62%
    04:00 +10°C° 0 mm 1 mps 649 mmHg 63%
    05:00 +10°C° 0 mm 1 mps 649 mmHg 63%
    06:00 +12°C° 0 mm 1 mps 650 mmHg 58%
    07:00 +13°C° 0 mm 1 mps 650 mmHg 53%
    08:00 +14°C° 0 mm 0 mps 651 mmHg 48%
    09:00 +18°C° 0 mm 1 mps 652 mmHg 42%
    10:00 +21°C° 0 mm 1 mps 652 mmHg 36%
    11:00 +24°C° 0 mm 2 mps 652 mmHg 30%
    12:00 +25°C° 0 mm 2 mps 652 mmHg 29%
    13:00 +26°C° 0 mm 3 mps 651 mmHg 28%
    14:00 +26°C° 0 mm 3 mps 651 mmHg 27%
    15:00 +26°C° 0 mm 3 mps 650 mmHg 29%
    16:00 +25°C° 0 mm 3 mps 650 mmHg 31%
    17:00 +25°C° 0 mm 2 mps 650 mmHg 33%
    18:00 +21°C° 0 mm 2 mps 649 mmHg 40%
    19:00 +19°C° 0 mm 1 mps 649 mmHg 48%
    20:00 +16°C° 0 mm 1 mps 649 mmHg 55%
    21:00 +15°C° 0 mm 1 mps 650 mmHg 56%
    22:00 +15°C° 0 mm 1 mps 650 mmHg 56%
    23:00 +15°C° 0 mm 2 mps 650 mmHg 57%

    25 August, Sunday

    Time Temperature Precipitation Wind Pressure Humidity
    00:00 +15°C° 0 mm 2 mps 650 mmHg 56%
    01:00 +15°C° 0 mm 1 mps 649 mmHg 56%
    02:00 +15°C° 0 mm 1 mps 649 mmHg 56%
    03:00 +14°C° 0 mm 1 mps 649 mmHg 56%
    04:00 +14°C° 0 mm 1 mps 649 mmHg 56%
    05:00 +14°C° 0 mm 1 mps 649 mmHg 56%
    06:00 +15°C° 0 mm 1 mps 650 mmHg 51%
    07:00 +18°C° 0 mm 1 mps 651 mmHg 46%
    08:00 +19°C° 0 mm 1 mps 652 mmHg 41%
    09:00 +22°C° 0 mm 1 mps 652 mmHg 38%
    10:00 +25°C° 0 mm 1 mps 653 mmHg 34%
    11:00 +27°C° 0 mm 2 mps 653 mmHg 31%
    12:00 +28°C° 0 mm 2 mps 653 mmHg 30%
    13:00 +28°C° 0 mm 3 mps 653 mmHg 29%
    14:00 +29°C° 0 mm 4 mps 653 mmHg 29%
    15:00 +28°C° 0.2 mm 4 mps 653 mmHg 34%
    16:00 +26°C° 0.2 mm 4 mps 652 mmHg 39%
    17:00 +23°C° 0.2 mm 4 mps 652 mmHg 44%
    18:00 +21°C° 0.7 mm 3 mps 652 mmHg 53%
    19:00 +19°C° 0.7 mm 2 mps 653 mmHg 63%
    20:00 +17°C° 0.7 mm 2 mps 653 mmHg 72%
    21:00 +16°C° 0.3 mm 1 mps 653 mmHg 74%
    22:00 +16°C° 0.3 mm 1 mps 654 mmHg 76%
    23:00 +15°C° 0.3 mm 1 mps 654 mmHg 78%

    26 August, Monday

    Time Temperature Precipitation Wind Pressure Humidity
    00:00 +15°C° 0.1 mm 1 mps 654 mmHg 81%
    01:00 +15°C° 0.1 mm 1 mps 654 mmHg 84%
    02:00 +13°C° 0.1 mm 0 mps 654 mmHg 87%
    03:00 +13°C° 0 mm 0 mps 654 mmHg 87%
    04:00 +13°C° 0 mm 0 mps 654 mmHg 87%
    05:00 +13°C° 0 mm 0 mps 654 mmHg 88%
    06:00 +14°C° 0 mm 0 mps 655 mmHg 83%
    07:00 +14°C° 0 mm 0 mps 656 mmHg 79%
    08:00 +15°C° 0 mm 0 mps 656 mmHg 75%
    09:00 +19°C° 0 mm 1 mps 657 mmHg 67%
    10:00 +21°C° 0 mm 1 mps 657 mmHg 59%
    11:00 +23°C° 0 mm 2 mps 658 mmHg 50%
    12:00 +24°C° 0 mm 2 mps 657 mmHg 48%
    13:00 +25°C° 0 mm 2 mps 657 mmHg 47%
    14:00 +25°C° 0 mm 2 mps 656 mmHg 45%
    15:00 +24°C° 0.1 mm 2 mps 656 mmHg 46%
    16:00 +24°C° 0.1 mm 2 mps 656 mmHg 48%
    17:00 +23°C° 0.1 mm 2 mps 656 mmHg 49%
    18:00 +20°C° 0.1 mm 2 mps 656 mmHg 58%
    19:00 +20°C° 0.1 mm 1 mps 656 mmHg 66%
    20:00 +18°C° 0.1 mm 1 mps 656 mmHg 74%
    21:00 +18°C° 0.1 mm 1 mps 656 mmHg 78%
    22:00 +15°C° 0.1 mm 0 mps 656 mmHg 81%
    23:00 +15°C° 0.1 mm 0 mps 657 mmHg 84%

    27 August, Tuesday

    Time Temperature Precipitation Wind Pressure Humidity
    00:00 +14°C° 0 mm 0 mps 656 mmHg 86%
    01:00 +14°C° 0 mm 0 mps 656 mmHg 88%
    02:00 +13°C° 0 mm 0 mps 656 mmHg 90%
    03:00 +13°C° 0 mm 0 mps 655 mmHg 91%
    04:00 +13°C° 0 mm 0 mps 655 mmHg 91%
    05:00 +12°C° 0 mm 0 mps 655 mmHg 91%
    06:00 +13°C° 0 mm 0 mps 656 mmHg 86%
    07:00 +14°C° 0 mm 0 mps 656 mmHg 80%
    08:00 +16°C° 0 mm 0 mps 657 mmHg 75%
    09:00 +20°C° 0 mm 1 mps 658 mmHg 68%
    10:00 +22°C° 0 mm 1 mps 658 mmHg 61%
    11:00 +24°C° 0 mm 2 mps 658 mmHg 54%
    12:00 +24°C° 0 mm 2 mps 658 mmHg 51%
    13:00 +25°C° 0 mm 3 mps 657 mmHg 49%
    14:00 +26°C° 0 mm 3 mps 657 mmHg 46%
    15:00 +25°C° 0 mm 3 mps 656 mmHg 48%
    16:00 +24°C° 0 mm 3 mps 656 mmHg 50%
    17:00 +24°C° 0 mm 3 mps 655 mmHg 53%
    18:00 +21°C° 0 mm 2 mps 655 mmHg 59%
    19:00 +21°C° 0 mm 1 mps 655 mmHg 65%
    20:00 +19°C° 0 mm 1 mps 655 mmHg 72%
    21:00 +19°C° 0 mm 1 mps 655 mmHg 74%
    22:00 +16°C° 0 mm 0 mps 655 mmHg 77%
    23:00 +16°C° 0 mm 0 mps 655 mmHg 79%
    Show more